Location: Hollin Hills
(38.7573°N, 77.0661°W)
Time: 19:03:56
(UTC+00:00)

BlueWalker 3 - Pass Details

Date: 12 April 2026
Orbit: 447 x 458 km, 53.2° (Epoch: 12 May)

Event Time Altitude Azimuth Distance (km) Brightness Sun altitude
Rises 01:02:06 0° 301° (WNW) 2,473 7.3 -15.7°
Reaches altitude 10° 01:04:26 10° 289° (WNW) 1,597 5.8 -16.1°
Maximum altitude 01:07:32 28° 230° (SW) 896 3.4 -16.7°
Enters shadow 01:09:32 17° 182° (S) 1,234 3.7 -17.0°
